Showing default

SJ-5, 25731

Orbit data source: Space-Track

SJ-5, 25731 is a payload satellite owned by CASC (CN) in SSO that was launched on Mon, 10 May 1999 UTC via a CHANG ZHENG 4B launch vehicle from the Taiyaun Space Center, China (TSC). Payload-class satellites include a variety of spacecraft equipped with specific instruments for various scientific and technological missions. These include communications satellites like Starlink; space stations such as the ISS; scientific satellites like the Hubble; Earth observation satellites from companies like Planet Labs, Umbra, and HawkEye 360; GPS; miniature CubeSats for education and research; and military/defense satellites.

Loading next visibility...
Identifier
25731, 1999-025B
Orbit
SSO
Country
Flag of CNCN / PRC
Related business
Manufacturer
DFH
Mission
Civil Science
Bus & Motor
CAST-968, Unknown motor
Mass
258 kg wet, 258 kg dry
Launch date (UTC)
1999-05-10 (27 years ago)
Launch vehicle
CHANG ZHENG 4B
Launch site
Taiyaun Space Center, China (TSC)
Object type
Payload
Rocket body
Debris
Shape & HBR
Box + 1 Pan, 2.0 m
Radar Cross Section
2.313 m², Large (>1 m²)

Expand to show TLE details & history
Last TLE update: 1 day ago

TLE from 1 day ago
0 SJ-5
1 25731U 99025B   26206.35348338  .00000031  00000-0  39541-4 0  9996
2 25731  98.7241 247.8010 0015891 244.7789 115.1737 14.12936432400710
Epoch: 2026-07-25T08:29Z
TLE epoch observation values (Epoch: 2026-07-25T08:29:00.964Z)
Latitude
0.00006°
Longitude
177.47999°
Altitude
857.146 km
Speed
7.421 km/s
True Right ascension
16h 31m 12s
True Declination
0° 00' 00"
Sunlit
Object was in full shadow at epoch
Visualization orbit readout
Latitude
Unknown
Longitude
Unknown
Altitude
Unknown
Speed
Unknown
Apparent Right ascension
Unknown
Apparent Declination
Unknown
Sunlit
N/A
Visualization observer readout
Local Sidereal Time
23:22:44
Azimuth
Unknown
Elevation
Unknown
Doppler factor
Unknown
Orbital elements
Apogee altitude
857.99 km
Perigee altitude
835.029 km
Semi-major axis
7,224.646 km
Eccentricity
0.00159
Inclination
98.7241°
RAAN
247.801°
Arg. of periapsis
244.7789°
True anomaly
115.33836°
Mean anomaly
115.1737°
Eccentric anomaly
115.25605°
Mean motion
3.53442 °/min
Orbital period
101.86 mins
BSTAR
0.000039541
Loading maneuver chart data...
Computing Atmospheric mass density...

Documentation

Showing up to 5 results
|